星链-4476 (STARLINK-4476 )

导读

STARLINK-4476是美国太空探索技术公司(SpaceX)星链(Starlink)卫星互联网项目中的卫星,于2022年8月10日发射升空,属于星链低轨卫星星座的组成部分。星链项目旨在构建全球覆盖的卫星互联网网络,STARLINK-4476承担着为全球用户提供宽带互联网接入服务的任务,运行于近地轨道,助力星链星座实现全球无缝网络覆盖。

Basic Information
目录编号:
53419
目录名称:
STARLINK-4476
国际标识:
2022-097AH
轨道中心:
EARTH
卫星名称:
星链-4476
卫星全名:
星链-4476 (STARLINK-4476 )
卫星状态:
在轨 (已飞行1494 天)
发射日期:
2022-08-10 UTC
国别 :
美国 (US)
星等 :
--
This satellite is enrolled in the Space Conjunction Data Service (SCDS) and the current flight risk assessment level is: No High Risk
Orbit Information
数据来源 国际轨道数据
星历时间: 2026-09-12T09:28:12+0800
9小时前
查看轨道信息
半长轴: 6840.905km
偏心率: 0.0001147
轨道倾角: 53.161°
近地点辐角 73.932°
升交点赤经 347.504°
平近点角 286.181°
近地点: 461.983km
远地点: 463.553km
周期: 93.849分钟
每日圈数: 15.343783
Detailed Information
固有亮度:
5
最大亮度:
2.5
卫星平台:
Starlink v1.5
覆盖范围:
全球
运营商:
太空探索技术公司
运营商所在国:
美国
制造商(研发单位):
太空探索技术公司
制造商所在国:
美国
使用方式:
暂无
Satellite Introduction
星链(Starlink)计划是由太空探索技术公司(SpaceX)提出的一个巨型低轨卫星互联网星座项目,计划在2019年至2024年间在太空搭建由约1.2万颗卫星组成的“星链”网络,其中1584颗将部署在地球上空550千米处的近地轨道,并从2020年开始工作。该卫星仍在工作。
2D Orbit Map
3D Orbit Map
Orbit Altitude Analysis Chart
Orbit Inclination Analysis Chart
Orbit Comprehensive Analysis Chart
View Comprehensive Chart
Conjunction Data List
Event ID Objects TCA Miss Dist (km) Collision Risk Probability Collision Risk Index (CRI) Action
CDM_260914-131705-341906-982222
2026-09-14T
13:17:42+0000
0.420 km
远距离
1.130113E-4 高风险 0.76
CDM_260914-105705-341906-982222
2026-09-14T
10:57:01+0000
0.686 km
远距离
2.835219E-5 中风险 0.64
CDM_260913-044405-341906-383521
HERMES-3 (63835)
2026-09-13T
04:44:14+0000
2.692 km
极远距离
1.546943E-6 低风险 0.39
Miss Distance Evolution Trend with All Objects
Collision Probability Evolution Trend with All Objects